カタログに戻る

STARLINK-3936

運用中通信VLEO
NORAD 52674·PAYLOAD·🇺🇸 United States

打ち上げ May 18, 2022 から Cape Canaveral Space Force Station

Loading…

次のパス (今後24時間)

TLE

最新Source: CelesTrak SupGP

元期: Sep 14, 2026, 14:08 UTC

1 52674C 22053U   26257.58937500 -.00006170  00000+0 -23273-3 0  2577
2 52674  53.1594 352.6109 0001308  77.8801 188.0351 15.26514841    16

AllMySatでSTARLINK-3936をリアルタイム追跡

Download on the App Store